Weather in Nova Sloboda

Ukraine / Sumi District     51°22′16″N   34°07′09″E
temp.,
°C
wind,
m/s
gust,
m/s
humid.,
%
clouds,
%
prec.,
mm/h
press.,
hPa
HPBL,
m
17 october, sun
sun1700:00+5w22935 0.0 101922
03:00+5wnw22935 0.0 101916
06:00+4nnw22925 0.0 101918
09:00+6nw228290 0.0 1019100
12:00+10wnw346510 0.0 1019635
15:00+12w445921 0.0 10181044
18:00+8w337471 0.0 101834
21:00+6wnw338146 0.0 101846
18 october, mon
mon1800:00+5w347581 0.0 101851
03:00+4w347698 0.0 101864
06:00+3w367952 0.0 1018106
09:00+5wsw487194 0.0 1018250
12:00+9w5858100 0.0 1018724
15:00+10w6856100 0.0 10161275
18:00+8w3765100 0.0 1017213
21:00+7wnw487498 0.0 1016406
19 october, tue
tue1900:00+7w4781100 0.1 1016954
03:00+5n478763 1.7 1016552
06:00+3nw38957 0.0 1017238
09:00+4nw59780 0.0 1019369
12:00+7nw68625 0.0 10201037
15:00+8nw795379 0.0 10211733
18:00+6nnw61063100 0.1 1023885
21:00+5nnw4870100 0.1 1024887
20 october, wed
wed2000:00+4nw487297 0.1 1025710
03:00+2nw36865 0.1 1026142
06:00+1nw359074 0.0 1027111
09:00+2wnw238160 0.0 1027172
12:00+6w3457100 0.0 1027845
15:00+7wsw4549100 0.0 1026968
18:00+5ssw3562100 0.0 102578
21:00+4s41071100 0.0 1024207
21 october, thu
thu2100:00+4ssw5137082 0.0 1022291
03:00+5ssw61458100 0.0 1020380
06:00+6ssw71659100 0.0 1019442
09:00+7ssw81768100 0.0 1017529
12:00+11ssw91666100 0.0 1016732
15:00+13ssw91666100 0.0 1013918
18:00+12ssw81668100 0.0 1012840
21:00+11ssw71669100 0.0 1011652